Regional Weather Roundup
Issued by NWS

Home | Current Version | Previous Version | Text Only | Print | Product List | Glossary On
Versions: 1 2 3 4 5 6 7 8 9 10 11 12 13 14 15 16 17 18 19 20 21 22 23 24 25 26 27 28 29 30 31 32 33 34 35 36 37 38 39 40 41 42 43 44 45 46 47 48 49 50
000
ASUS45 KABQ 191710
RWRNM
NEW MEXICO REGIONAL WEATHER ROUNDUP
NATIONAL WEATHER SERVICE ALBUQUERQUE NM
1100 AM MDT THU APR 19 2018

NOTE: "FAIR" MEANS FEW OR NO CLOUDS BELOW 12,000 FEET AGL WITH NO
       SIGNIFICANT WEATHER OR OBSTRUCTIONS TO VISION.

      THIS PRODUCT IS RELEASED AS TWO VERSIONS.  ONE VERSION NEAR
      THE TOP OF THE HOUR CONTAINING PRELIMINARY DATA FROM ALBUQUERQUE
      AND OTHER STATIONS.  A FINAL VERSION WITH ADDITIONAL DATA IS
      ISSUED ABOUT 10 MINUTES AFTER THE HOUR.

NMZ501-503-504-510>518-191800-
NORTHWEST PLATEAU/NORTHCENTRAL MOUNTAINS

CITY           SKY/WX    TMP DP  RH WIND       PRES   REMARKS
FARMINGTON     FAIR      65  12  12 S20G26    30.03F
LOS ALAMOS     FAIR      50  12  21 S13G24    30.30S
SANTA FE       FAIR      56  14  19 SE23G33   30.26F
TAOS           FAIR      56  12  17 W14       30.26F
ANGEL FIRE     FAIR      48  13  25 S21G26    30.31S

$$
NMZ402-403-502-505>509-191800-
WESTCENTRAL MOUNTAINS/SOUTHWEST MOUNTAINS

CITY           SKY/WX    TMP DP  RH WIND       PRES   REMARKS
GALLUP         FAIR      69   4   7 S23G32    30.04F
GRANTS         FAIR      58   9  14 SE25G39   30.16F HAZE
SILVER CITY    FAIR      66  12  12 SE13G23   30.18S

$$
NMZ407-409-411-412-191800-
SOUTHERN DESERTS

CITY           SKY/WX    TMP DP  RH WIND       PRES   REMARKS
DEMING         FAIR      72  16  12 E16G25    30.13F
LAS CRUCES     FAIR      70  17  13 E18       30.18F
HOLLOMAN AFB   FAIR      73  11   9 S3        30.21F
ALAMOGORDO     FAIR      66  12  12 NW5       30.20S
T OR C         FAIR      69  10  10 S10G20    30.17F

$$
NMZ519>523-191800-
CENTRAL VALLEYS/CENTRAL HIGHLANDS

CITY           SKY/WX    TMP DP  RH WIND       PRES   REMARKS
ALBUQUERQUE    FAIR      62  13  14 SE16G31   30.19F
DOUBLE EAGLE   MOSUNNY   61  14  16 SE13G20   30.21F
MORIARTY ARPT  FAIR      60  16  18 SE24      30.30S
CLINES CORNERS FAIR      53  16  23 SE23G39   30.33S
BELEN          FAIR      65  12  12 SE20G25   30.18F
SOCORRO        FAIR      65  11  12 S15G23    30.17F

$$
NMZ524>526-539-540-191800-
SOUTHCENTRAL MOUNTAINS

CITY           SKY/WX    TMP DP  RH WIND       PRES   REMARKS
RUIDOSO        FAIR      54  18  24 SE20G31   30.36S

$$
NMZ527>531-191800-
NORTHEAST HIGHLANDS/NORTHEAST PLAINS

CITY           SKY/WX    TMP DP  RH WIND       PRES   REMARKS
LAS VEGAS      FAIR      50  14  23 S22G29    30.35F
RATON          FAIR      54  10  17 S24G35    30.31F
CLAYTON        FAIR      56  16  20 S26G33    30.35F

$$
NMZ532>537-191800-
EASTCENTRAL PLAINS

CITY           SKY/WX    TMP DP  RH WIND       PRES   REMARKS
SANTA ROSA     FAIR      58  15  18 SE18G25   30.32F
TUCUMCARI      FAIR      65  17  15 S17G25    30.32F
CANNON AFB     FAIR      60  20  21 SE17G26   30.37S
CLOVIS AIRPORT FAIR      60  20  21 SE21G28   30.37

$$
NMZ028-029-538-191800-
SOUTHEAST PLAINS

CITY           SKY/WX    TMP DP  RH WIND       PRES   REMARKS
ROSWELL        CLOUDY    65  20  17 S18G26    30.31F
ARTESIA        FAIR      66  21  18 SE20G28   30.30F
CARLSBAD       FAIR      67  21  17 SE22G30   30.29F
HOBBS          PTSUNNY   64  16  15 SE17G30   30.33S


$$



USA.gov is the U.S. government's official web portal to all federal, state and local government web resources and services.